Location: Nag� el Ma?a??a
(24.0667°N, 32.8833°E)
Time: 13:34:02
(UTC+00:00)

Hubble Space Telescope - Visible Passes

Search period start: 02 December 2021 00:00
Search period end: 12 December 2021 00:00
Orbit: 534 x 538 km, 28.5° (Epoch: 02 December)

Date Brightness Start Highest point End Pass type
(mag) Time Alt. Az. Time Alt. Az. Time Alt. Az.
02 Dec 1.9 02:18:25 37° NE 02:18:25 37° NE 02:21:18 10° E visible
03 Dec 2.5 02:07:57 30° ENE 02:07:57 30° ENE 02:10:14 10° E visible
03 Dec 1.0 03:43:22 10° W 03:47:26 63° SSW 03:51:30 10° ESE visible
04 Dec 3.0 01:57:30 23° E 01:57:30 23° E 01:59:11 10° E visible
04 Dec 1.3 03:32:48 13° W 03:36:16 49° SSW 03:40:14 10° SE visible
05 Dec 3.5 01:47:03 17° E 01:47:03 17° E 01:48:06 10° E visible
05 Dec 1.6 03:22:21 17° W 03:25:06 38° SSW 03:28:55 10° SE visible
06 Dec 3.9 01:36:37 12° ESE 01:36:37 12° ESE 01:37:00 10° ESE visible
06 Dec 2.0 03:11:55 20° WSW 03:13:53 29° SSW 03:17:29 10° SE visible
07 Dec 2.3 03:01:31 20° SW 03:02:41 23° SSW 03:05:57 10° SSE visible
08 Dec 2.6 02:51:08 17° SW 02:51:28 18° SSW 02:54:15 10° SSE visible
09 Dec 3.1 02:40:45 13° SSW 02:40:45 13° SSW 02:42:16 10° S visible
10 Dec 3.1 16:09:38 10° S 16:11:15 12° SSE 16:12:34 11° SE visible
11 Dec 2.8 15:57:27 10° S 16:00:01 16° SSE 16:02:10 11° ESE visible
11 Dec 3.7 17:36:48 10° WSW 17:37:28 14° WSW 17:37:28 14° WSW visible
